This demonstration page uses our WeatherBlox Daily Observations layout. Learn more.

Left ArrowRight Arrow

34.02893, -84.19858

Hourly Observations for July 1, 2021

Temp ( °F °C ) Dew Point ( °F °C ) Humidity (%) Winds ( mph kmh ) Pressure ( in mb ) Visibility ( mi km ) Precip ( " mm )
12:53 am 00:53 Clear 73 22.8 67 19.4 81 81 S 6 9 30.07 1018 10 16 0.00 0.00
1:53 am 01:53 Clear 71 21.7 67 19.4 87 87 Calm 30.06 1018 10 16 0.00 0.00
2:53 am 02:53 Clear 70 21.1 67 19.4 90 90 Calm 30.07 1018 10 16 0.00 0.00
3:53 am 03:53 Clear 70 21.1 68 20 93 93 Calm 30.04 1017 10 16 0.00 0.00
4:53 am 04:53 Clear 69 20.6 67 19.4 93 93 Calm 30.04 1017 10 16 0.00 0.00
5:53 am 05:53 Clear 68 20 67 19.4 96 96 Calm 30.03 1017 10 16 0.00 0.00
6:53 am 06:53 Sunny 68 20 67 19.4 96 96 Calm 30.04 1017 10 16 0.00 0.00
7:53 am 07:53 Sunny 72 22.2 69 20.6 91 91 Calm 30.04 1017 10 16 0.00 0.00
8:53 am 08:53 Sunny 75 23.9 68 20 79 79 SW 5 7 30.05 1018 10 16 0.00 0.00
9:53 am 09:53 Partly Cloudy 77 25 68 20 74 74 S 6 9 30.05 1018 10 16 0.00 0.00
10:53 am 10:53 Partly Cloudy 80 26.7 69 20.6 69 69 SSW 5 7 30.04 1017 10 16 0.00 0.00
11:00 am 11:00 Mostly Cloudy 80 26.7 68 20 67 67 SSW 9 15 30.04 1017 10 16 0.00 0.00
11:30 am 11:30 Cloudy 80 26.7 68 20 67 67 SSW 9 15 30.04 1017 10 16 0.00 0.00
11:37 am 11:37 Mostly Cloudy 82 27.8 68 20 63 63 SSW 8 13 30.04 1017 10 16 0.00 0.00
11:53 am 11:53 Mostly Cloudy 81 27.2 68 20 65 65 SW 6 9 30.03 1017 10 16 0.00 0.00
12:53 pm 12:53 Mostly Cloudy 85 29.4 69 20.6 59 59 SSW 8 13 30.01 1016 10 16 0.00 0.00
1:00 pm 13:00 Partly Cloudy 83 28.3 68 20 61 61 S 8 13 30.01 1016 10 16 0.00 0.00
1:53 pm 13:53 Mostly Sunny 85 29.4 68 20 57 57 undefined N/A 29.98 1015 10 16 0.00 0.00
2:53 pm 14:53 Mostly Cloudy 84 28.9 68 20 59 59 SSE 9 15 29.96 1015 10 16 0.00 0.00
3:53 pm 15:53 Mostly Cloudy 85 29.4 69 20.6 59 59 SSW 8 13 29.93 1014 10 16 0.00 0.00
4:53 pm 16:53 Sunny 87 30.6 68 20 53 53 SW 12 19 29.91 1013 10 16 0.00 0.00
5:53 pm 17:53 Mostly Sunny 86 30 67 19.4 53 53 W 10 17 29.91 1013 10 16 0.00 0.00
6:53 pm 18:53 Sunny 83 28.3 66 18.9 57 57 SW 9 15 29.91 1013 10 16 0.00 0.00
7:53 pm 19:53 Sunny 81 27.2 67 19.4 62 62 SW 7 11 29.91 1013 10 16 0.00 0.00
8:53 pm 20:53 Mostly Cloudy 80 26.7 68 20 67 67 WSW 7 11 29.91 1013 10 16 0.00 0.00
9:53 pm 21:53 Cloudy 79 26.1 69 20.6 72 72 SW 7 11 29.92 1013 10 16 0.00 0.00
10:53 pm 22:53 Cloudy 79 26.1 70 21.1 74 74 SW 5 7 29.93 1013 10 16 0.00 0.00
11:53 pm 23:53 Partly Cloudy 77 25 70 21.1 79 79 SW 6 9 29.93 1014 10 16 0.00 0.00

Powered by AerisWeather